Flag for U.S.A. Weather past 2 weeks in Cape Canaveral, Florida, U.S.A.

Now
83 °F

Sunny.


Feels Like: 89 °F
Forecast: 74 / 86 °F
Wind: 6 mph from Northwest

Location: Cape Kennedy

Current Time: Sep 18, 2014 at 12:22:52 PM

Latest Report: Sep 18, 2014 at 10:58 AM


Visibility: 10 mi

Pressure: 29.95 "Hg

Humidity: 74%

Dew point: 74 °F

Location of Cape CanaveralLocation

Historic Weather in Cape Canaveral — Graph

°F

Cape Canaveral temperature yesterday

Maximum temperature yesterday: 85 °F (at 12:58 PM)
Minimum temperature yesterday: 76 °F (at 11:58 PM)
Average temperature yesterday: 79 °F

Past Weeks' High & Low Weather Summary

 TemperatureHumidityPressure
High89 °F (Sep 16, 12:58 PM)97% (Sep 6, 4:58 AM)30.18 "Hg (Sep 6, 4:58 AM)
Low70 °F (Sep 15, 6:58 AM)51% (Sep 15, 11:58 AM)29.86 "Hg (Sep 17, 4:58 PM)
Average80 °F79%30.04 "Hg
* Reported Sep 3 10:58 AM — Sep 18 10:58 AM, Cape Canaveral, Weather by CustomWeather, © 2014

Note: Actual official high and low records may vary slightly from our data, if they occured in-between our weather recording intervals... More about our weather records

Advertising

Cape Canaveral weather history for previous 24 hours

 ConditionsComfort  
Time TempWeatherWind HumidityBarometerVisibility
10:58 AM
Sep 18
83 °FSunny.6 mph74%29.95 "Hg10 mi
9:58 AM80 °FSunny.7 mph79%29.94 "Hg10 mi
8:58 AM77 °FSunny.5 mph90%29.93 "Hg10 mi
7:58 AM75 °FClear.6 mph95%29.92 "Hg10 mi
6:58 AM75 °FClear.6 mph95%29.91 "Hg10 mi
5:58 AM75 °FClear.7 mph94%29.89 "Hg10 mi
4:58 AM75 °FClear.7 mph94%29.89 "Hg10 mi
3:58 AM75 °FClear.7 mph94%29.88 "Hg10 mi
2:58 AM75 °FClear.6 mph94%29.89 "Hg10 mi
1:58 AM75 °FClear.5 mph93%29.90 "Hg10 mi
12:58 AM75 °FClear.5 mph93%29.91 "Hg10 mi
11:58 PM
Sep 17
76 °FClear.6 mph90%29.93 "Hg10 mi
10:58 PM77 °FClear.6 mph88%29.93 "Hg10 mi
9:58 PM77 °FClear.6 mph86%29.92 "Hg10 mi
8:58 PM78 °FPassing clouds.6 mph82%29.90 "Hg10 mi
7:58 PM79 °FSunny.6 mph82%29.88 "Hg10 mi
6:58 PM80 °FSunny.6 mph78%29.88 "Hg10 mi
5:58 PM81 °FSunny.8 mph77%29.87 "Hg10 mi
4:58 PM82 °FSunny.7 mph76%29.86 "Hg10 mi
3:58 PM82 °FSunny.7 mph77%29.87 "Hg10 mi
2:58 PM80 °FSunny.8 mph83%29.89 "Hg10 mi
1:58 PM84 °FPassing clouds.8 mph69%29.90 "Hg10 mi
12:58 PM85 °FPassing clouds.8 mph63%29.93 "Hg10 mi
Weather by CustomWeather, © 2014

See weather overviewHow to use our weather pages